Regional Weather Roundup
Issued by NWS Wilmington, NC

Home | Current Version | Previous Version | Text Only | Print | Product List | Glossary On
Versions: 1 2 3 4 5 6 7 8 9 10 11 12 13 14 15 16 17 18 19 20 21 22 23 24 25 26 27 28 29 30 31 32 33 34 35 36 37 38 39 40 41 42 43 44 45 46 47 48 49 50
000
ASUS42 KILM 211112
RWRILM
RWRILM
REGIONAL HOURLY WEATHER ROUNDUP
NATIONAL WEATHER SERVICE WILMINGTON NC
700 AM EDT TUE APR 21 2015

NOTE: "FAIR" INDICATES FEW OR NO CLOUDS BELOW 12,000 FEET WITH NO
SIGNIFICANT WEATHER AND/OR OBSTRUCTIONS TO VISIBILITY.

...............WFO WILMINGTON COUNTY WARNING AREA...............

......COASTAL NC AND SC COUNTIES......

CITY           SKY/WX    TMP DP  RH WIND       PRES   REMARKS
WILMINGTON     CLEAR     63  58  83 W12       29.82R
N MYRTLE BEACH CLEAR     63  58  83 W6        29.85R
MYRTLE BEACH   CLEAR     63  57  82 W8        29.87R

......INLAND NC AND SC COUNTIES.......

CITY           SKY/WX    TMP DP  RH WIND       PRES   REMARKS
LUMBERTON      MOCLDY    61  56  83 NW7       29.85R
ELIZABETHTOWN  PTCLDY    63  58  83 W7        29.84R
WHITEVILLE     PTCLDY    62  57  84 SW3       29.85R
FLORENCE       FAIR      59  54  83 W3        29.87R
DARLINGTON     CLEAR     55  50  82 NW5       29.89R

....................REST OF NORTH CAROLINA......................

.........EASTERN NC.........

CITY           SKY/WX    TMP DP  RH WIND       PRES   REMARKS
CAPE HATTERAS  CLEAR     64  60  87 W10G20    29.76R
JACKSONVILLE   CLEAR     63  57  82 SW9       29.81R
MOREHEAD CITY  CLEAR     65  62  90 MISG      29.79R
KENANSVILLE    MOCLDY    64  58  83 W5        29.82R
NEW BERN       CLEAR     65  60  84 W8        29.80R
ELIZABETH CITY CLEAR     62  56  80 W13G20    29.75R

.........CENTRAL NC.........

CITY           SKY/WX    TMP DP  RH WIND       PRES   REMARKS
RALEIGH DURHAM PTCLDY    55  43  63 CALM      29.84R
ROCKY MOUNT    PTCLDY    58  50  75 NW8       29.82R
ROANOKE RAPIDS NOT AVBL
FAYETTEVILLE   CLOUDY    62  42  47 NW15      29.84R
HOFFMAN        CLEAR     56  47  71 NW3       29.89R

.........WESTERN NC.........

CITY           SKY/WX    TMP DP  RH WIND       PRES   REMARKS
CHARLOTTE      CLEAR     47  41  80 CALM      29.86R
GREENSBORO     CLEAR     50  39  66 NW7       29.84R
HICKORY        NOT AVBL
BOONE          NOT AVBL
ASHEVILLE      NOT AVBL

.....................REST OF SOUTH CAROLINA.....................

.........EASTERN SC.........

CITY           SKY/WX    TMP DP  RH WIND       PRES   REMARKS
CHARLESTON     PTCLDY    62  59  90 W6        29.89R
BEAUFORT MCAS  PTCLDY    62  60  93 W7        29.91R
HILTON HEAD    PTCLDY    63  63 100 SW8       29.92R

.........CENTRAL SC.........

CITY           SKY/WX    TMP DP  RH WIND       PRES   REMARKS
COLUMBIA       PTCLDY    52  47  83 W6        29.89R
ORANGEBURG     CLEAR     57  52  83 NW5       29.89R
SUMTER SHAW    CLEAR     55  51  85 W5        29.87R

.........WESTERN SC.........

CITY           SKY/WX    TMP DP  RH WIND       PRES   REMARKS
GREENVILLE     NOT AVBL
ROCK HILL      CLEAR     47  45  93 CALM      29.87R FOG
ANDERSON       CLEAR     47  42  83 CALM      29.89R
CLEMSON        NOT AVBL
GREENWOOD      CLEAR     47  44  90 SW7       29.91R


...................COASTAL AND OFFSHORE REPORTS..................

................LOCAL PIERS AND NC RESERVE................


STATION/POSITION TIME  SKY/WX   TEMP    WIND        PRES    VSBY
                                AIR SEA DIR/SP/G
                 (UTC)          (F)     (DEG/KT/KT) (MB)    (MI)
JOHNY MRCER PIER 1000            66 64  250/ 12/ 15 1008.2R
NC RESRV MASNBRO NOT AVBL
OCEAN CREST PIER 1002            66 66  220/ 17/ 18 1008.5R
SPRINGMAID  PIER 1000            64 65  210/  8/ 11 1010.0R


................COASTAL AND OFFSHORE BUOYS................


STATION/POSITION TIME  SKY/WX   TEMP    WIND        PRES    VSBY
                                AIR SEA DIR/SP/G
                 (UTC)          (F)     (DEG/KT/KT) (MB)    (MI)
DIMNDSHOAL 41025 1050            70 74  250/ 23/ 27 1007.4R
WVE H/P(F/S)=  8/ 7 WND WVE H/P(F/S)=  7/ 7 SWL H/P/D(F/S/D)=  2/130/10

CAPE LOOKOUT     1100            64     250/ 12/ 14 1008.4R
ONSLOW BAY 41036 NOT AVBL
5 WRITEBCH 41038 1000            66 65  260/ 12/ 14 1008.8R
MASONBORO  41110 1019               65                N/A
WVE H/P(F/S)=  3/ 6 WND WVE H/P(F/S)=  3/ 6

WILM HARBR 41108 1011               64                N/A
WVE H/P(F/S)=  5/ 6 WND WVE H/P(F/S)=  5/ 6

27WRITEBCH 41037 1000            64 68  260/ 19/ 23   N/A
FRYING PAN 41013 1050            71 72  260/ 19/ 23 1010.2R
WVE H/P(F/S)=  7/ 6 WND WVE H/P(F/S)=  7/ 6

SUNST NRSH 41024 NOT AVBL
CAPRS NRSH 41029 NOT AVBL
EDISTO     41004 1050            69 73  270/ 17/ 19 1011.0R
WVE H/P(F/S)=  5/ 6 WND WVE H/P(F/S)=  5/ 6 SWL H/P/D(F/S/D)=  2/10



..........OFFSHORE BUOYS BEYOND 100 NM OFFSHORE...........
.....IN A TRIANGLE---HAT TO BERMUDA TO BAHAMAS TO HAT.....


STATION/POSITION TIME  SKY/WX   TEMP    WIND        PRES    VSBY
                                AIR SEA DIR/SP/G
                 (UTC)          (F)     (DEG/KT/KT) (MB)    (MI)
150E HAT   41001 NOT AVBL
W BERMUDA  41048 1050            73 72  190/ 12/ 16 1014.0F
WVE H/P(F/S)=  5/ 6 WND WVE H/P(F/S)=  3/ 6 SWL H/P/D(F/S/D)=  3/ 8

ATLANTIC S 41049 1050            76 77  180/ 10/ 12 1018.1R
WVE H/P(F/S)=  4/12 WND WVE H/P(F/S)=  2/ 4 SWL H/P/D(F/S/D)=  5/ 10/12

E BAHAMAS  41046 1050            79 80  140/ 10/ 12 1017.1R
WVE H/P(F/S)=  4/14 WND WVE H/P(F/S)=  2/ 4 SWL H/P/D(F/S/D)=  3/ 20/14

NE BAHAMAS 41047 1050            77 77  220/  6/  8 1016.6R
WVE H/P(F/S)=  3/14 WND WVE H/P(F/S)=  2/ 4 SWL H/P/D(F/S/D)=  3/ 60/14

120E CANVRL41010 1020            76 78  200/ 10/ 12 1013.4R

END


USA.gov is the U.S. government's official web portal to all federal, state and local government web resources and services.